Time,TemperatureF,DewpointF,PressureIn,WindDirection,WindDirectionDegrees,WindSpeedMPH,WindSpeedGustMPH,Humidity,HourlyPrecipIn,Conditions,Clouds,dailyrainin,SoftwareType,DateUTC
2013-08-14 00:00:00,55.8,48.7,30.13,NW,322,1.0,1.0,77,0.00,,,0.00,Wunderground v.1.15,2013-08-14 04:00:00,
2013-08-14 00:05:00,55.8,48.7,30.13,NNW,332,1.0,2.0,77,0.00,,,0.00,Wunderground v.1.15,2013-08-14 04:05:00,
2013-08-14 00:10:00,55.8,48.7,30.13,NNW,327,1.0,1.0,77,0.00,,,0.00,Wunderground v.1.15,2013-08-14 04:10:00,
2013-08-14 00:15:00,55.8,49.0,30.13,NW,321,1.0,2.0,78,0.00,,,0.00,Wunderground v.1.15,2013-08-14 04:15:00,
2013-08-14 00:20:00,55.7,49.3,30.13,NNW,338,1.0,2.0,79,0.00,,,0.00,Wunderground v.1.15,2013-08-14 04:20:00,
2013-08-14 00:25:00,55.7,49.3,30.13,NW,319,0.0,2.0,79,0.00,,,0.00,Wunderground v.1.15,2013-08-14 04:25:00,
2013-08-14 00:30:00,55.6,49.5,30.13,NNW,327,0.0,2.0,80,0.00,,,0.00,Wunderground v.1.15,2013-08-14 04:30:00,
2013-08-14 00:35:00,55.4,49.3,30.13,NNW,327,0.0,2.0,80,0.00,,,0.00,Wunderground v.1.15,2013-08-14 04:35:00,
2013-08-14 00:40:00,55.3,49.6,30.13,NNW,327,0.0,2.0,81,0.00,,,0.00,Wunderground v.1.15,2013-08-14 04:40:00,
2013-08-14 00:50:00,55.0,49.3,30.13,NNW,328,0.0,2.0,81,0.00,,,0.00,Wunderground v.1.15,2013-08-14 04:50:00,
2013-08-14 00:55:00,54.8,49.4,30.13,NNW,330,0.0,2.0,82,0.00,,,0.00,Wunderground v.1.15,2013-08-14 04:55:00,
2013-08-14 01:00:00,54.7,49.3,30.13,NNW,331,0.0,2.0,82,0.00,,,0.00,Wunderground v.1.15,2013-08-14 05:00:00,
2013-08-14 01:05:00,54.6,49.2,30.13,NNW,331,0.0,2.0,82,0.00,,,0.00,Wunderground v.1.15,2013-08-14 05:05:00,
2013-08-14 01:10:00,54.4,49.3,30.13,NNW,330,0.0,2.0,83,0.00,,,0.00,Wunderground v.1.15,2013-08-14 05:10:00,
2013-08-14 01:20:00,54.4,49.7,30.13,NNW,348,0.0,2.0,84,0.00,,,0.00,Wunderground v.1.15,2013-08-14 05:20:00,
2013-08-14 01:25:00,54.4,49.7,30.13,NNW,348,0.0,2.0,84,0.00,,,0.00,Wunderground v.1.15,2013-08-14 05:25:00,
2013-08-14 01:30:00,54.4,49.7,30.13,North,351,0.0,2.0,84,0.00,,,0.00,Wunderground v.1.15,2013-08-14 05:30:00,
2013-08-14 01:35:00,54.4,49.7,30.13,NNW,337,0.0,2.0,84,0.00,,,0.00,Wunderground v.1.15,2013-08-14 05:35:00,
2013-08-14 01:45:00,54.5,50.1,30.13,NW,317,0.0,2.0,85,0.00,,,0.00,Wunderground v.1.15,2013-08-14 05:45:00,
2013-08-14 01:55:00,54.4,50.0,30.13,NW,317,0.0,2.0,85,0.00,,,0.00,Wunderground v.1.15,2013-08-14 05:55:00,
2013-08-14 02:00:00,54.3,50.2,30.14,NW,318,0.0,2.0,86,0.00,,,0.00,Wunderground v.1.15,2013-08-14 06:00:00,
2013-08-14 02:05:00,54.3,50.2,30.14,NNW,331,0.0,2.0,86,0.00,,,0.00,Wunderground v.1.15,2013-08-14 06:05:00,
2013-08-14 02:10:00,54.2,50.1,30.14,NNW,330,0.0,2.0,86,0.00,,,0.00,Wunderground v.1.15,2013-08-14 06:10:00,
2013-08-14 02:15:00,54.2,50.1,30.14,North,5,0.0,2.0,86,0.00,,,0.00,Wunderground v.1.15,2013-08-14 06:15:00,
2013-08-14 02:25:00,54.0,50.2,30.13,North,5,0.0,2.0,87,0.00,,,0.00,Wunderground v.1.15,2013-08-14 06:25:00,
2013-08-14 02:30:00,53.7,49.9,30.13,North,5,0.0,2.0,87,0.00,,,0.00,Wunderground v.1.15,2013-08-14 06:30:00,
2013-08-14 02:35:00,53.4,49.6,30.13,NNE,33,0.0,2.0,87,0.00,,,0.00,Wunderground v.1.15,2013-08-14 06:35:00,
2013-08-14 02:40:00,53.4,49.9,30.13,North,5,0.0,2.0,88,0.00,,,0.00,Wunderground v.1.15,2013-08-14 06:40:00,
2013-08-14 02:45:00,53.4,49.9,30.14,North,355,0.0,2.0,88,0.00,,,0.00,Wunderground v.1.15,2013-08-14 06:45:00,
2013-08-14 02:50:00,53.2,49.7,30.14,North,355,0.0,2.0,88,0.00,,,0.00,Wunderground v.1.15,2013-08-14 06:50:00,
2013-08-14 03:00:00,53.0,49.8,30.14,North,5,0.0,2.0,89,0.00,,,0.00,Wunderground v.1.15,2013-08-14 07:00:00,
2013-08-14 03:05:00,53.0,49.8,30.14,North,5,0.0,2.0,89,0.00,,,0.00,Wunderground v.1.15,2013-08-14 07:05:00,
2013-08-14 03:10:00,53.0,49.8,30.14,North,360,0.0,2.0,89,0.00,,,0.00,Wunderground v.1.15,2013-08-14 07:10:00,
2013-08-14 03:15:00,52.9,49.7,30.14,North,5,0.0,2.0,89,0.00,,,0.00,Wunderground v.1.15,2013-08-14 07:15:00,
2013-08-14 03:20:00,52.8,49.6,30.14,North,360,0.0,2.0,89,0.00,,,0.00,Wunderground v.1.15,2013-08-14 07:20:00,
2013-08-14 03:30:00,52.6,49.4,30.13,NNW,329,0.0,2.0,89,0.00,,,0.00,Wunderground v.1.15,2013-08-14 07:30:00,
2013-08-14 03:35:00,52.4,49.6,30.14,NNW,329,0.0,2.0,90,0.00,,,0.00,Wunderground v.1.15,2013-08-14 07:35:00,
2013-08-14 03:40:00,52.3,49.5,30.13,NNW,329,0.0,2.0,90,0.00,,,0.00,Wunderground v.1.15,2013-08-14 07:40:00,
2013-08-14 03:45:00,52.4,49.6,30.13,NNW,329,0.0,2.0,90,0.00,,,0.00,Wunderground v.1.15,2013-08-14 07:45:00,
2013-08-14 03:50:00,52.5,49.7,30.14,NNW,329,0.0,2.0,90,0.00,,,0.00,Wunderground v.1.15,2013-08-14 07:50:00,
2013-08-14 03:55:00,52.7,49.8,30.14,NNW,329,0.0,2.0,90,0.00,,,0.00,Wunderground v.1.15,2013-08-14 07:55:00,
2013-08-14 04:05:00,52.6,49.8,30.14,NNW,333,0.0,2.0,90,0.00,,,0.00,Wunderground v.1.15,2013-08-14 08:05:00,
2013-08-14 04:10:00,52.6,49.8,30.14,NNW,333,0.0,2.0,90,0.00,,,0.00,Wunderground v.1.15,2013-08-14 08:10:00,
2013-08-14 04:15:00,52.5,49.7,30.14,North,10,0.0,2.0,90,0.00,,,0.00,Wunderground v.1.15,2013-08-14 08:15:00,
2013-08-14 04:20:00,52.5,49.9,30.14,NNW,340,0.0,2.0,91,0.00,,,0.00,Wunderground v.1.15,2013-08-14 08:20:00,
2013-08-14 04:25:00,52.5,49.7,30.14,NNE,28,0.0,2.0,90,0.00,,,0.00,Wunderground v.1.15,2013-08-14 08:25:00,
2013-08-14 04:35:00,52.6,49.8,30.14,NNE,24,0.0,2.0,90,0.00,,,0.00,Wunderground v.1.15,2013-08-14 08:35:00,
2013-08-14 04:40:00,52.7,49.8,30.14,North,9,0.0,2.0,90,0.00,,,0.00,Wunderground v.1.15,2013-08-14 08:40:00,
2013-08-14 04:50:00,52.7,49.8,30.14,North,9,0.0,2.0,90,0.00,,,0.00,Wunderground v.1.15,2013-08-14 08:50:00,
2013-08-14 04:55:00,52.8,50.2,30.14,North,360,0.0,2.0,91,0.00,,,0.00,Wunderground v.1.15,2013-08-14 08:55:00,
2013-08-14 05:06:00,52.6,50.0,30.14,North,360,0.0,2.0,91,0.00,,,0.00,Wunderground v.1.15,2013-08-14 09:06:00,
2013-08-14 05:15:00,52.5,49.9,30.14,North,360,0.0,2.0,91,0.00,,,0.00,Wunderground v.1.15,2013-08-14 09:15:00,
2013-08-14 05:25:00,52.6,50.3,30.15,North,360,0.0,2.0,92,0.00,,,0.00,Wunderground v.1.15,2013-08-14 09:25:00,
2013-08-14 05:30:00,52.8,50.5,30.15,North,5,0.0,2.0,92,0.00,,,0.00,Wunderground v.1.15,2013-08-14 09:30:00,
2013-08-14 05:35:00,53.0,50.4,30.15,NNW,348,0.0,2.0,91,0.00,,,0.00,Wunderground v.1.15,2013-08-14 09:35:00,
2013-08-14 05:45:00,52.8,50.2,30.15,NNE,21,0.0,2.0,91,0.00,,,0.00,Wunderground v.1.15,2013-08-14 09:45:00,
2013-08-14 05:50:00,52.7,50.4,30.15,North,360,0.0,2.0,92,0.00,,,0.00,Wunderground v.1.15,2013-08-14 09:50:00,
2013-08-14 05:55:00,52.7,50.4,30.16,North,9,0.0,2.0,92,0.00,,,0.00,Wunderground v.1.15,2013-08-14 09:55:00,
2013-08-14 06:05:00,52.7,50.4,30.15,NNE,13,0.0,2.0,92,0.00,,,0.00,Wunderground v.1.15,2013-08-14 10:05:00,
2013-08-14 06:10:00,52.5,50.2,30.16,North,11,0.0,2.0,92,0.00,,,0.00,Wunderground v.1.15,2013-08-14 10:10:00,
2013-08-14 06:15:00,52.3,50.0,30.15,North,11,0.0,2.0,92,0.00,,,0.00,Wunderground v.1.15,2013-08-14 10:15:00,
2013-08-14 06:20:00,52.3,50.0,30.16,North,11,0.0,2.0,92,0.00,,,0.00,Wunderground v.1.15,2013-08-14 10:20:00,
2013-08-14 06:30:00,52.1,50.1,30.16,North,11,0.0,2.0,93,0.00,,,0.00,Wunderground v.1.15,2013-08-14 10:30:00,
2013-08-14 06:35:00,52.1,50.1,30.16,North,10,0.0,2.0,93,0.00,,,0.00,Wunderground v.1.15,2013-08-14 10:35:00,
2013-08-14 06:40:00,52.0,50.0,30.16,North,11,0.0,2.0,93,0.00,,,0.00,Wunderground v.1.15,2013-08-14 10:40:00,
2013-08-14 06:45:00,51.9,49.9,30.16,North,11,0.0,2.0,93,0.00,,,0.00,Wunderground v.1.15,2013-08-14 10:45:00,
2013-08-14 06:50:00,51.8,49.8,30.16,North,10,0.0,2.0,93,0.00,,,0.00,Wunderground v.1.15,2013-08-14 10:50:00,
2013-08-14 06:55:00,51.7,49.7,30.17,North,11,0.0,2.0,93,0.00,,,0.00,Wunderground v.1.15,2013-08-14 10:55:00,
2013-08-14 07:00:00,51.8,49.8,30.17,North,11,0.0,2.0,93,0.00,,,0.00,Wunderground v.1.15,2013-08-14 11:00:00,
2013-08-14 07:10:00,51.7,49.7,30.17,North,11,0.0,2.0,93,0.00,,,0.00,Wunderground v.1.15,2013-08-14 11:10:00,
2013-08-14 07:15:00,51.6,49.9,30.17,North,11,0.0,2.0,94,0.00,,,0.00,Wunderground v.1.15,2013-08-14 11:15:00,
2013-08-14 07:20:00,51.6,49.9,30.17,North,11,0.0,2.0,94,0.00,,,0.00,Wunderground v.1.15,2013-08-14 11:20:00,
2013-08-14 07:25:00,51.6,49.9,30.17,North,11,0.0,2.0,94,0.00,,,0.00,Wunderground v.1.15,2013-08-14 11:25:00,
2013-08-14 07:30:00,51.8,50.1,30.17,North,11,0.0,2.0,94,0.00,,,0.00,Wunderground v.1.15,2013-08-14 11:30:00,
2013-08-14 07:40:00,52.3,50.6,30.17,North,11,0.0,2.0,94,0.00,,,0.00,Wunderground v.1.15,2013-08-14 11:40:00,
2013-08-14 07:45:00,52.4,50.7,30.17,North,11,0.0,2.0,94,0.00,,,0.00,Wunderground v.1.15,2013-08-14 11:45:00,
2013-08-14 07:50:00,52.6,50.6,30.17,North,11,0.0,2.0,93,0.00,,,0.00,Wunderground v.1.15,2013-08-14 11:50:00,
2013-08-14 07:55:00,52.7,50.7,30.18,North,11,0.0,2.0,93,0.00,,,0.00,Wunderground v.1.15,2013-08-14 11:55:00,
2013-08-14 08:00:00,53.0,51.3,30.18,North,11,0.0,2.0,94,0.00,,,0.00,Wunderground v.1.15,2013-08-14 12:00:00,
2013-08-14 08:05:00,53.1,51.1,30.18,North,11,0.0,2.0,93,0.00,,,0.00,Wunderground v.1.15,2013-08-14 12:05:00,
2013-08-14 08:15:00,53.5,51.8,30.18,North,11,0.0,2.0,94,0.00,,,0.00,Wunderground v.1.15,2013-08-14 12:15:00,
2013-08-14 08:20:00,53.7,51.7,30.18,North,11,0.0,2.0,93,0.00,,,0.00,Wunderground v.1.15,2013-08-14 12:20:00,
2013-08-14 08:25:00,53.9,51.9,30.18,North,11,0.0,2.0,93,0.00,,,0.00,Wunderground v.1.15,2013-08-14 12:25:00,
2013-08-14 08:30:00,54.2,52.2,30.18,North,11,0.0,2.0,93,0.00,,,0.00,Wunderground v.1.15,2013-08-14 12:30:00,
2013-08-14 08:35:00,54.6,52.6,30.18,North,11,0.0,2.0,93,0.00,,,0.00,Wunderground v.1.15,2013-08-14 12:35:00,
2013-08-14 08:45:00,55.1,52.8,30.18,North,11,0.0,2.0,92,0.00,,,0.00,Wunderground v.1.15,2013-08-14 12:45:00,
2013-08-14 08:50:00,55.4,52.8,30.18,North,11,0.0,2.0,91,0.00,,,0.00,Wunderground v.1.15,2013-08-14 12:50:00,
2013-08-14 08:55:00,55.7,53.1,30.18,North,11,0.0,2.0,91,0.00,,,0.00,Wunderground v.1.15,2013-08-14 12:55:00,
2013-08-14 09:00:00,56.0,53.4,30.18,North,11,0.0,2.0,91,0.00,,,0.00,Wunderground v.1.15,2013-08-14 13:00:00,
2013-08-14 09:10:00,56.9,54.0,30.19,North,11,0.0,2.0,90,0.00,,,0.00,Wunderground v.1.15,2013-08-14 13:10:00,
2013-08-14 09:20:00,57.5,53.7,30.19,NNW,344,0.0,2.0,87,0.00,,,0.00,Wunderground v.1.15,2013-08-14 13:20:00,
2013-08-14 09:25:00,57.7,53.9,30.19,NNW,341,0.0,2.0,87,0.00,,,0.00,Wunderground v.1.15,2013-08-14 13:25:00,
2013-08-14 09:30:00,58.0,53.8,30.19,NNW,339,0.0,2.0,86,0.00,,,0.00,Wunderground v.1.15,2013-08-14 13:30:00,
2013-08-14 09:35:00,58.2,53.7,30.19,NNW,336,0.0,2.0,85,0.00,,,0.00,Wunderground v.1.15,2013-08-14 13:35:00,
2013-08-14 09:40:00,58.5,53.7,30.19,NW,324,0.0,2.0,84,0.00,,,0.00,Wunderground v.1.15,2013-08-14 13:40:00,
2013-08-14 09:50:00,59.0,54.2,30.19,NW,324,0.0,2.0,84,0.00,,,0.00,Wunderground v.1.15,2013-08-14 13:50:00,
2013-08-14 09:55:00,59.0,53.8,30.19,NW,321,0.0,2.0,83,0.00,,,0.00,Wunderground v.1.15,2013-08-14 13:55:00,
2013-08-14 10:00:00,59.0,54.2,30.19,NW,317,1.0,2.0,84,0.00,,,0.00,Wunderground v.1.15,2013-08-14 14:00:00,
2013-08-14 10:05:00,59.0,54.2,30.19,WNW,297,1.0,2.0,84,0.00,,,0.00,Wunderground v.1.15,2013-08-14 14:05:00,
2013-08-14 10:10:00,59.4,53.9,30.19,WNW,289,1.0,2.0,82,0.00,,,0.00,Wunderground v.1.15,2013-08-14 14:10:00,
2013-08-14 10:15:00,59.5,54.3,30.19,West,267,1.0,2.0,83,0.00,,,0.00,Wunderground v.1.15,2013-08-14 14:15:00,
2013-08-14 10:25:00,59.5,53.7,30.19,WNW,285,1.0,4.0,81,0.00,,,0.00,Wunderground v.1.15,2013-08-14 14:25:00,
2013-08-14 10:30:00,59.8,54.0,30.19,West,263,1.0,2.0,81,0.00,,,0.00,Wunderground v.1.15,2013-08-14 14:30:00,
2013-08-14 10:35:00,59.9,53.7,30.19,WSW,255,2.0,2.0,80,0.00,,,0.00,Wunderground v.1.15,2013-08-14 14:35:00,
2013-08-14 10:40:00,59.8,53.6,30.19,WSW,257,2.0,2.0,80,0.00,,,0.00,Wunderground v.1.15,2013-08-14 14:40:00,
2013-08-14 10:45:00,60.0,54.2,30.19,West,279,2.0,2.0,81,0.00,,,0.00,Wunderground v.1.15,2013-08-14 14:45:00,
2013-08-14 10:55:00,60.0,54.2,30.19,West,269,1.0,2.0,81,0.00,,,0.00,Wunderground v.1.15,2013-08-14 14:55:00,
2013-08-14 11:00:00,60.1,54.2,30.19,West,273,1.0,2.0,81,0.00,,,0.00,Wunderground v.1.15,2013-08-14 15:00:00,
2013-08-14 11:05:00,60.0,53.5,30.19,WSW,253,1.0,2.0,79,0.00,,,0.00,Wunderground v.1.15,2013-08-14 15:05:00,
2013-08-14 11:10:00,60.3,54.1,30.19,West,267,2.0,2.0,80,0.00,,,0.00,Wunderground v.1.15,2013-08-14 15:10:00,
2013-08-14 11:15:00,60.3,54.1,30.19,West,279,2.0,2.0,80,0.00,,,0.00,Wunderground v.1.15,2013-08-14 15:15:00,
2013-08-14 11:21:00,60.2,53.3,30.19,West,281,1.0,3.0,78,0.00,,,0.00,Wunderground v.1.15,2013-08-14 15:21:00,
2013-08-14 11:30:00,60.5,53.3,30.19,West,261,1.0,2.0,77,0.00,,,0.00,Wunderground v.1.15,2013-08-14 15:30:00,
2013-08-14 11:40:00,60.8,53.5,30.19,West,272,2.0,2.0,77,0.00,,,0.00,Wunderground v.1.15,2013-08-14 15:40:00,
2013-08-14 11:45:00,60.8,52.8,30.19,WSW,254,2.0,3.0,75,0.00,,,0.00,Wunderground v.1.15,2013-08-14 15:45:00,
2013-08-14 11:50:00,60.7,53.1,30.19,WSW,258,2.0,2.0,76,0.00,,,0.00,Wunderground v.1.15,2013-08-14 15:50:00,
2013-08-14 12:00:00,60.7,53.1,30.19,WSW,254,3.0,3.0,76,0.00,,,0.00,Wunderground v.1.15,2013-08-14 16:00:00,
2013-08-14 12:05:00,60.8,53.5,30.19,WSW,252,3.0,4.0,77,0.00,,,0.00,Wunderground v.1.15,2013-08-14 16:05:00,
2013-08-14 12:10:00,61.2,53.9,30.19,West,269,2.0,3.0,77,0.00,,,0.00,Wunderground v.1.15,2013-08-14 16:10:00,
2013-08-14 12:15:00,61.2,53.2,30.19,WSW,257,2.0,3.0,75,0.00,,,0.00,Wunderground v.1.15,2013-08-14 16:15:00,
2013-08-14 12:20:00,61.2,53.2,30.19,WSW,257,2.0,2.0,75,0.00,,,0.00,Wunderground v.1.15,2013-08-14 16:20:00,
2013-08-14 12:25:00,61.0,53.7,30.19,West,267,2.0,2.0,77,0.00,,,0.00,Wunderground v.1.15,2013-08-14 16:25:00,
2013-08-14 12:30:00,61.2,53.6,30.19,WSW,258,2.0,2.0,76,0.00,,,0.00,Wunderground v.1.15,2013-08-14 16:30:00,
2013-08-14 12:35:00,61.2,53.6,30.19,West,259,1.0,2.0,76,0.00,,,0.00,Wunderground v.1.15,2013-08-14 16:35:00,
2013-08-14 12:40:00,61.2,53.2,30.19,WSW,256,1.0,5.0,75,0.00,,,0.00,Wunderground v.1.15,2013-08-14 16:40:00,
2013-08-14 12:45:00,61.4,52.7,30.19,WSW,249,2.0,6.0,73,0.00,,,0.00,Wunderground v.1.15,2013-08-14 16:45:00,
2013-08-14 12:50:00,61.6,52.1,30.18,West,259,3.0,5.0,71,0.00,,,0.00,Wunderground v.1.15,2013-08-14 16:50:00,
2013-08-14 13:00:00,61.5,52.4,30.18,WSW,254,2.0,2.0,72,0.00,,,0.00,Wunderground v.1.15,2013-08-14 17:00:00,
2013-08-14 13:05:00,61.5,52.8,30.18,WSW,255,2.0,3.0,73,0.00,,,0.00,Wunderground v.1.15,2013-08-14 17:05:00,
2013-08-14 13:10:00,61.7,53.3,30.18,WSW,254,3.0,4.0,74,0.00,,,0.00,Wunderground v.1.15,2013-08-14 17:10:00,
2013-08-14 13:20:00,61.8,53.1,30.18,WSW,247,4.0,4.0,73,0.00,,,0.00,Wunderground v.1.15,2013-08-14 17:20:00,
2013-08-14 13:25:00,62.0,52.1,30.18,WSW,252,3.0,4.0,70,0.00,,,0.00,Wunderground v.1.15,2013-08-14 17:25:00,
2013-08-14 13:40:00,62.3,51.2,30.18,West,259,3.0,4.0,67,0.00,,,0.00,Wunderground v.1.15,2013-08-14 17:40:00,
2013-08-14 13:45:00,62.5,52.2,30.18,WSW,251,3.0,4.0,69,0.00,,,0.00,Wunderground v.1.15,2013-08-14 17:45:00,
2013-08-14 13:50:00,62.5,53.0,30.17,WSW,255,3.0,3.0,71,0.00,,,0.00,Wunderground v.1.15,2013-08-14 17:50:00,
2013-08-14 14:00:00,62.6,52.3,30.17,West,259,3.0,5.0,69,0.00,,,0.00,Wunderground v.1.15,2013-08-14 18:00:00,
2013-08-14 14:05:00,62.7,52.4,30.18,WSW,257,3.0,5.0,69,0.00,,,0.00,Wunderground v.1.15,2013-08-14 18:05:00,
2013-08-14 14:15:00,62.7,52.8,30.17,WSW,250,3.0,3.0,70,0.00,,,0.00,Wunderground v.1.15,2013-08-14 18:15:00,
2013-08-14 14:20:00,63.3,53.3,30.17,WSW,250,3.0,3.0,70,0.00,,,0.00,Wunderground v.1.15,2013-08-14 18:20:00,
2013-08-14 14:30:00,63.1,52.0,30.17,WSW,256,3.0,3.0,67,0.00,,,0.00,Wunderground v.1.15,2013-08-14 18:30:00,
2013-08-14 14:35:00,63.3,53.0,30.17,WSW,247,3.0,4.0,69,0.00,,,0.00,Wunderground v.1.15,2013-08-14 18:35:00,
2013-08-14 14:50:00,64.2,54.2,30.17,WSW,241,4.0,6.0,70,0.00,,,0.00,Wunderground v.1.15,2013-08-14 18:50:00,
2013-08-14 15:00:00,64.4,52.4,30.17,WSW,241,4.0,4.0,65,0.00,,,0.00,Wunderground v.1.15,2013-08-14 19:00:00,
2013-08-14 15:05:00,64.3,53.5,30.17,WSW,242,5.0,5.0,68,0.00,,,0.00,Wunderground v.1.15,2013-08-14 19:05:00,
2013-08-14 15:15:00,64.7,53.5,30.16,SW,236,5.0,7.0,67,0.00,,,0.00,Wunderground v.1.15,2013-08-14 19:15:00,
2013-08-14 15:20:00,64.4,52.4,30.17,WSW,241,6.0,6.0,65,0.00,,,0.00,Wunderground v.1.15,2013-08-14 19:20:00,
2013-08-14 15:25:00,64.4,52.8,30.16,WSW,246,6.0,6.0,66,0.00,,,0.00,Wunderground v.1.15,2013-08-14 19:25:00,
2013-08-14 15:35:00,65.0,52.9,30.16,WSW,246,5.0,6.0,65,0.00,,,0.00,Wunderground v.1.15,2013-08-14 19:35:00,
2013-08-14 15:40:00,64.7,52.2,30.16,WSW,244,5.0,5.0,64,0.00,,,0.00,Wunderground v.1.15,2013-08-14 19:40:00,
2013-08-14 15:45:00,64.5,52.0,30.16,WSW,246,5.0,5.0,64,0.00,,,0.00,Wunderground v.1.15,2013-08-14 19:45:00,
2013-08-14 15:50:00,64.8,51.9,30.16,WSW,250,4.0,4.0,63,0.00,,,0.00,Wunderground v.1.15,2013-08-14 19:50:00,
2013-08-14 16:05:00,65.3,51.1,30.16,WSW,243,3.0,5.0,60,0.00,,,0.00,Wunderground v.1.15,2013-08-14 20:05:00,
2013-08-14 16:10:00,65.6,51.8,30.16,WSW,250,3.0,4.0,61,0.00,,,0.00,Wunderground v.1.15,2013-08-14 20:10:00,
2013-08-14 16:15:00,65.4,52.9,30.15,WSW,244,4.0,5.0,64,0.00,,,0.00,Wunderground v.1.15,2013-08-14 20:15:00,
2013-08-14 16:25:00,65.7,51.4,30.15,WSW,246,4.0,5.0,60,0.00,,,0.00,Wunderground v.1.15,2013-08-14 20:25:00,
2013-08-14 16:35:00,65.5,52.6,30.15,WSW,245,4.0,6.0,63,0.00,,,0.00,Wunderground v.1.15,2013-08-14 20:35:00,
2013-08-14 16:40:00,65.8,52.9,30.15,WSW,243,5.0,5.0,63,0.00,,,0.00,Wunderground v.1.15,2013-08-14 20:40:00,
2013-08-14 16:45:00,65.7,52.8,30.15,WSW,245,5.0,5.0,63,0.00,,,0.00,Wunderground v.1.15,2013-08-14 20:45:00,
2013-08-14 16:55:00,65.4,53.7,30.15,WSW,252,6.0,9.0,66,0.00,,,0.00,Wunderground v.1.15,2013-08-14 20:55:00,
2013-08-14 17:05:00,65.2,53.1,30.15,WSW,241,7.0,9.0,65,0.00,,,0.00,Wunderground v.1.15,2013-08-14 21:05:00,
2013-08-14 17:10:00,64.9,52.8,30.15,WSW,242,7.0,8.0,65,0.00,,,0.00,Wunderground v.1.15,2013-08-14 21:10:00,
2013-08-14 17:15:00,64.9,52.8,30.15,WSW,242,8.0,8.0,65,0.00,,,0.00,Wunderground v.1.15,2013-08-14 21:15:00,
2013-08-14 17:20:00,64.9,52.8,30.15,WSW,240,8.0,9.0,65,0.00,,,0.00,Wunderground v.1.15,2013-08-14 21:20:00,
2013-08-14 17:30:00,64.8,52.8,30.15,WSW,237,6.0,8.0,65,0.00,,,0.00,Wunderground v.1.15,2013-08-14 21:30:00,
2013-08-14 17:35:00,64.9,53.7,30.15,WSW,244,7.0,8.0,67,0.00,,,0.00,Wunderground v.1.15,2013-08-14 21:35:00,
2013-08-14 17:40:00,65.2,54.0,30.15,WSW,245,7.0,7.0,67,0.00,,,0.00,Wunderground v.1.15,2013-08-14 21:40:00,
2013-08-14 17:45:00,64.8,53.6,30.14,WSW,250,7.0,7.0,67,0.00,,,0.00,Wunderground v.1.15,2013-08-14 21:45:00,
2013-08-14 17:50:00,64.8,53.6,30.14,SW,232,7.0,7.0,67,0.00,,,0.00,Wunderground v.1.15,2013-08-14 21:50:00,
2013-08-14 18:00:00,65.0,54.6,30.14,WSW,242,7.0,8.0,69,0.00,,,0.00,Wunderground v.1.15,2013-08-14 22:00:00,
2013-08-14 18:05:00,65.1,53.9,30.14,WSW,243,7.0,8.0,67,0.00,,,0.00,Wunderground v.1.15,2013-08-14 22:05:00,
2013-08-14 18:10:00,64.9,53.7,30.15,WSW,245,6.0,7.0,67,0.00,,,0.00,Wunderground v.1.15,2013-08-14 22:10:00,
2013-08-14 18:15:00,65.0,54.2,30.14,WSW,240,7.0,7.0,68,0.00,,,0.00,Wunderground v.1.15,2013-08-14 22:15:00,
2013-08-14 18:20:00,65.1,53.9,30.14,WSW,248,6.0,6.0,67,0.00,,,0.00,Wunderground v.1.15,2013-08-14 22:20:00,
2013-08-14 18:25:00,65.0,53.4,30.14,WSW,248,6.0,6.0,66,0.00,,,0.00,Wunderground v.1.15,2013-08-14 22:25:00,
2013-08-14 18:35:00,64.4,53.6,30.14,WSW,242,6.0,6.0,68,0.00,,,0.00,Wunderground v.1.15,2013-08-14 22:35:00,
2013-08-14 18:45:00,63.3,52.6,30.14,WSW,237,7.0,8.0,68,0.00,,,0.00,Wunderground v.1.15,2013-08-14 22:45:00,
2013-08-14 18:50:00,64.0,54.0,30.14,WSW,247,6.0,6.0,70,0.00,,,0.00,Wunderground v.1.15,2013-08-14 22:50:00,
2013-08-14 18:55:00,64.9,53.3,30.13,SW,234,6.0,6.0,66,0.00,,,0.00,Wunderground v.1.15,2013-08-14 22:55:00,
2013-08-14 19:00:00,65.2,53.6,30.14,WSW,245,6.0,6.0,66,0.00,,,0.00,Wunderground v.1.15,2013-08-14 23:00:00,
2013-08-14 19:05:00,64.9,52.4,30.14,WSW,240,5.0,6.0,64,0.00,,,0.00,Wunderground v.1.15,2013-08-14 23:05:00,
2013-08-14 19:10:00,64.7,52.2,30.14,SW,229,5.0,8.0,64,0.00,,,0.00,Wunderground v.1.15,2013-08-14 23:10:00,
2013-08-14 19:20:00,64.8,53.2,30.13,WSW,238,7.0,7.0,66,0.00,,,0.00,Wunderground v.1.15,2013-08-14 23:20:00,
2013-08-14 19:25:00,64.3,53.5,30.13,WSW,241,6.0,7.0,68,0.00,,,0.00,Wunderground v.1.15,2013-08-14 23:25:00,
2013-08-14 19:35:00,64.6,52.6,30.13,WSW,239,6.0,7.0,65,0.00,,,0.00,Wunderground v.1.15,2013-08-14 23:35:00,
2013-08-14 19:40:00,64.4,52.8,30.13,WSW,240,6.0,7.0,66,0.00,,,0.00,Wunderground v.1.15,2013-08-14 23:40:00,
2013-08-14 19:45:00,64.2,53.4,30.13,WSW,237,6.0,9.0,68,0.00,,,0.00,Wunderground v.1.15,2013-08-14 23:45:00,
2013-08-14 19:55:00,63.4,53.4,30.13,WSW,241,7.0,8.0,70,0.00,,,0.00,Wunderground v.1.15,2013-08-14 23:55:00,
2013-08-14 20:00:00,63.6,52.4,30.13,WSW,240,6.0,6.0,67,0.00,,,0.00,Wunderground v.1.15,2013-08-15 00:00:00,
2013-08-14 20:05:00,63.5,53.1,30.13,SW,232,6.0,6.0,69,0.00,,,0.00,Wunderground v.1.15,2013-08-15 00:05:00,
2013-08-14 20:10:00,63.2,52.9,30.13,WSW,237,6.0,6.0,69,0.00,,,0.00,Wunderground v.1.15,2013-08-15 00:10:00,
2013-08-14 20:20:00,63.0,53.8,30.12,SW,234,4.0,7.0,72,0.00,,,0.00,Wunderground v.1.15,2013-08-15 00:20:00,
2013-08-14 20:25:00,62.9,53.0,30.13,SW,233,6.0,7.0,70,0.00,,,0.00,Wunderground v.1.15,2013-08-15 00:25:00,
2013-08-14 20:30:00,62.8,53.3,30.12,SW,233,6.0,6.0,71,0.00,,,0.00,Wunderground v.1.15,2013-08-15 00:30:00,
2013-08-14 20:35:00,62.7,51.6,30.12,SW,229,6.0,6.0,67,0.00,,,0.00,Wunderground v.1.15,2013-08-15 00:35:00,
2013-08-14 20:40:00,62.7,52.4,30.12,SW,236,6.0,9.0,69,0.00,,,0.00,Wunderground v.1.15,2013-08-15 00:40:00,
2013-08-14 20:50:00,62.6,51.9,30.12,WSW,241,8.0,8.0,68,0.00,,,0.00,Wunderground v.1.15,2013-08-15 00:50:00,
2013-08-14 20:55:00,62.6,52.3,30.12,SW,230,8.0,9.0,69,0.00,,,0.00,Wunderground v.1.15,2013-08-15 00:55:00,
2013-08-14 21:00:00,62.5,52.6,30.12,SW,233,7.0,7.0,70,0.00,,,0.00,Wunderground v.1.15,2013-08-15 01:00:00,
2013-08-14 21:05:00,62.4,51.7,30.12,SW,233,7.0,7.0,68,0.00,,,0.00,Wunderground v.1.15,2013-08-15 01:05:00,
2013-08-14 21:10:00,62.4,52.5,30.12,SW,233,7.0,7.0,70,0.00,,,0.00,Wunderground v.1.15,2013-08-15 01:10:00,
2013-08-14 21:20:00,62.5,52.6,30.12,SW,232,7.0,8.0,70,0.00,,,0.00,Wunderground v.1.15,2013-08-15 01:20:00,
2013-08-14 21:25:00,62.5,53.0,30.12,SW,236,7.0,8.0,71,0.00,,,0.00,Wunderground v.1.15,2013-08-15 01:25:00,
2013-08-14 21:30:00,62.4,52.5,30.12,WSW,242,7.0,8.0,70,0.00,,,0.00,Wunderground v.1.15,2013-08-15 01:30:00,
2013-08-14 21:40:00,62.4,52.9,30.12,WSW,243,7.0,7.0,71,0.00,,,0.00,Wunderground v.1.15,2013-08-15 01:40:00,
2013-08-14 21:45:00,62.5,52.6,30.12,SW,233,7.0,7.0,70,0.00,,,0.00,Wunderground v.1.15,2013-08-15 01:45:00,
2013-08-14 21:50:00,62.5,52.2,30.12,WSW,238,7.0,7.0,69,0.00,,,0.00,Wunderground v.1.15,2013-08-15 01:50:00,
2013-08-14 22:00:00,62.4,52.1,30.12,WSW,239,7.0,8.0,69,0.00,,,0.00,Wunderground v.1.15,2013-08-15 02:00:00,
2013-08-14 22:05:00,62.3,52.4,30.12,SW,236,7.0,8.0,70,0.00,,,0.00,Wunderground v.1.15,2013-08-15 02:05:00,
2013-08-14 22:10:00,62.3,52.8,30.12,WSW,247,7.0,8.0,71,0.00,,,0.00,Wunderground v.1.15,2013-08-15 02:10:00,
2013-08-14 22:20:00,62.2,52.7,30.12,SW,234,7.0,7.0,71,0.00,,,0.00,Wunderground v.1.15,2013-08-15 02:20:00,
2013-08-14 22:25:00,62.2,53.1,30.12,WSW,240,6.0,7.0,72,0.00,,,0.00,Wunderground v.1.15,2013-08-15 02:25:00,
2013-08-14 22:30:00,62.1,53.3,30.12,SW,233,6.0,6.0,73,0.00,,,0.00,Wunderground v.1.15,2013-08-15 02:30:00,
2013-08-14 22:35:00,62.0,52.5,30.11,SW,236,6.0,6.0,71,0.00,,,0.00,Wunderground v.1.15,2013-08-15 02:35:00,
2013-08-14 22:40:00,62.0,52.9,30.11,SW,232,6.0,6.0,72,0.00,,,0.00,Wunderground v.1.15,2013-08-15 02:40:00,
2013-08-14 22:45:00,62.0,53.2,30.11,WSW,242,5.0,6.0,73,0.00,,,0.00,Wunderground v.1.15,2013-08-15 02:45:00,
2013-08-14 22:50:00,61.9,53.1,30.11,WSW,237,5.0,5.0,73,0.00,,,0.00,Wunderground v.1.15,2013-08-15 02:50:00,
2013-08-14 22:55:00,61.8,53.4,30.12,WSW,237,4.0,5.0,74,0.00,,,0.00,Wunderground v.1.15,2013-08-15 02:55:00,
2013-08-14 23:05:00,61.8,52.7,30.12,SW,236,3.0,4.0,72,0.00,,,0.00,Wunderground v.1.15,2013-08-15 03:05:00,
2013-08-14 23:15:00,61.7,53.0,30.12,SW,233,3.0,4.0,73,0.00,,,0.00,Wunderground v.1.15,2013-08-15 03:15:00,
2013-08-14 23:20:00,61.6,52.5,30.12,SW,235,2.0,2.0,72,0.00,,,0.00,Wunderground v.1.15,2013-08-15 03:20:00,
2013-08-14 23:25:00,61.6,52.9,30.12,SW,234,1.0,2.0,73,0.00,,,0.00,Wunderground v.1.15,2013-08-15 03:25:00,
2013-08-14 23:35:00,61.4,53.0,30.12,SSW,192,0.0,2.0,74,0.00,,,0.00,Wunderground v.1.15,2013-08-15 03:35:00,
2013-08-14 23:40:00,61.4,54.1,30.12,SW,232,0.0,3.0,77,0.00,,,0.00,Wunderground v.1.15,2013-08-15 03:40:00,
2013-08-14 23:45:00,61.4,53.8,30.12,SW,236,2.0,4.0,76,0.00,,,0.00,Wunderground v.1.15,2013-08-15 03:45:00,
2013-08-14 23:50:00,61.4,53.4,30.12,SW,233,4.0,4.0,75,0.00,,,0.00,Wunderground v.1.15,2013-08-15 03:50:00,
2013-08-14 23:55:00,61.5,53.5,30.13,SW,232,4.0,4.0,75,0.00,,,0.00,Wunderground v.1.15,2013-08-15 03:55:00,